Location: Rancho Del Sol Observatory
(38.7214°N, 120.6350°W)
Time: 07:35:52
(UTC-08:00)

A-11 Canister half - Pass Details

Date: 05 February 2020
Orbit: 1517 x 1683 km, 47.2° (Epoch: 23 February)

Event Time Altitude Azimuth Distance (km) Brightness Sun altitude
Rises 22:05:03 0° 264° (W) 4,799 12.0 -53.2°
Reaches altitude 10° 22:08:18 10° 269° (W) 3,791 11.4 -53.7°
Enters shadow 22:11:39 24° 278° (W) 2,814 10.6 -54.3°
Maximum altitude 22:17:41 56° 347° (NNW) 1,793 - -55.3°
Drops below altitude 10° 22:26:50 10° 64° (ENE) 3,692 - -56.8°
Sets 22:29:57 0° 69° (ENE) 4,666 - -57.2°
